Hagerstown, MD

8:06 PM EDT on October 23, 2019 (GMT -0400)
Hagerstown Regional-Henson

Weather History for KHGR - September, 2019

Change the Weather History Date:

Tuesday, September 17, 2019

  Actual Average Record
Temperature  
Mean Temperature 71 °F 65 °F  
Max Temperature 82 °F 75 °F 87 °F (2005)
Min Temperature 60 °F 56 °F 42 °F (2007)
Degree Days  
Heating Degree Days 0 2  
Month to date heating degree days 0 16  
Since 1 July heating degree days 0 21  
Cooling Degree Days 6 3  
Month to date cooling degree days 153 72  
Year to date cooling degree days 1362 940  
Growing Degree Days 22 (Base 50)    
Moisture  
Dew Point 55 °F    
Average Humidity 59    
Maximum Humidity 81    
Minimum Humidity 37    
Precipitation  
Precipitation 0.01 in 0.14 in 1.49 in (2004)
Month to date precipitation 0.39 1.86  
Year to date precipitation 28.76 28.49  
Sea Level Pressure  
Sea Level Pressure 30.12 in    
Wind  
Wind Speed 7 mph (NE)    
Max Wind Speed 12 mph    
Max Gust Speed 17 mph    
Visibility 10 miles    
Events Rain    
T = Trace of Precipitation, MM = Missing Value Source: NWS Daily Summary

Daily Weather History Graph

Daily Weather History Graph

Search for Another Location

Airport or City:

Astronomy

Sep. 17, 2019 Rise Set
Actual Time 6:53 AM EDT 7:16 PM EDT
Civil Twilight 6:26 AM EDT 7:43 PM EDT
Nautical Twilight 5:54 AM EDT 8:15 PM EDT
Astronomical Twilight 5:22 AM EDT 8:47 PM EDT
Moon 9:19 PM EDT (9/17) 9:55 AM EDT (9/17)
Length of Visible Light 13h 16m
Length of Day
12h 22m
Waning Gibbous, 89% of the Moon is Illuminated
Sep 17
Waning Gibbous
Sep 21
Last Quarter
Sep 28
New
Oct 5
First Quarter
Oct 13
Full

Hourly Weather History & Observations

Time (EDT) Temp. Heat Index Dew Point Humidity Pressure Visibility Wind Dir Wind Speed Gust Speed Precip Events Conditions
12:53 AM 71.1 °F - 62.1 °F 73% 30.06 in 10.0 mi NNE 5.8 mph - N/A   Mostly Cloudy
1:53 AM 71.1 °F - 63.0 °F 75% 30.07 in 10.0 mi North 4.6 mph - N/A   Overcast
2:53 AM 69.1 °F - 64.0 °F 84% 30.07 in 9.0 mi North 8.1 mph - 0.01 in Rain Light Rain
3:53 AM 69.1 °F - 63.0 °F 81% 30.07 in 10.0 mi North 8.1 mph - 0.00 in   Overcast
4:53 AM 66.9 °F - 61.0 °F 81% 30.07 in 10.0 mi North 8.1 mph - N/A   Partly Cloudy
5:53 AM 66.9 °F - 61.0 °F 81% 30.08 in 10.0 mi NNE 9.2 mph - N/A   Overcast
6:53 AM 66.9 °F - 60.1 °F 79% 30.10 in 10.0 mi NNE 4.6 mph - N/A   Mostly Cloudy
7:53 AM 66.9 °F - 60.1 °F 79% 30.13 in 10.0 mi NNE 9.2 mph - N/A   Mostly Cloudy
8:53 AM 70.0 °F - 55.9 °F 61% 30.14 in 10.0 mi NNE 10.4 mph - N/A   Mostly Cloudy
9:53 AM 71.1 °F - 54.0 °F 55% 30.17 in 10.0 mi East 8.1 mph - N/A   Overcast
10:53 AM 71.1 °F - 57.0 °F 61% 30.18 in 10.0 mi East 5.8 mph - N/A   Mostly Cloudy
11:53 AM 75.0 °F - 57.0 °F 53% 30.17 in 10.0 mi NE 6.9 mph - N/A   Partly Cloudy
12:53 PM 75.9 °F - 59.0 °F 56% 30.16 in 10.0 mi ESE 6.9 mph - N/A   Scattered Clouds
1:53 PM 78.1 °F - 57.0 °F 48% 30.14 in 10.0 mi ESE 6.9 mph - N/A   Scattered Clouds
2:53 PM 79.0 °F - 55.0 °F 44% 30.12 in 10.0 mi East 5.8 mph - N/A   Partly Cloudy
3:53 PM 81.0 °F 80.4 °F 53.1 °F 38% 30.11 in 10.0 mi NE 6.9 mph - N/A   Partly Cloudy
4:53 PM 79.0 °F - 52.0 °F 39% 30.11 in 10.0 mi East 10.4 mph - N/A   Scattered Clouds
5:53 PM 79.0 °F - 50.0 °F 36% 30.11 in 10.0 mi ENE 8.1 mph - N/A   Partly Cloudy
6:53 PM 75.9 °F - 48.9 °F 38% 30.12 in 10.0 mi East 5.8 mph - N/A   Clear
7:53 PM 72.0 °F - 48.0 °F 43% 30.13 in 10.0 mi NE 9.2 mph - N/A   Clear
8:53 PM 70.0 °F - 46.0 °F 42% 30.15 in 10.0 mi ENE 8.1 mph - N/A   Clear
9:53 PM 66.9 °F - 48.0 °F 51% 30.16 in 10.0 mi ENE 5.8 mph - N/A   Clear
10:53 PM 64.9 °F - 46.9 °F 52% 30.17 in 10.0 mi ENE 4.6 mph - N/A   Clear
11:53 PM 63.0 °F - 46.9 °F 56% 30.18 in 10.0 mi NNW 4.6 mph - N/A   Clear